{"data":{"norad_id":69936,"epoch":"2026-09-19T23:00:54.043776Z","epoch_age_seconds":64531,"freshness":"FRESH","line1":"1 69936U 26156BV  26262.95895884  .00000981  00000+0  10065-3 0  9999","line2":"2 69936  97.7394 162.1977 0008285 266.5262  93.5010 14.92632033 11136","mean_motion":14.92632033,"eccentricity":0.0008285,"inclination_deg":97.7394,"raan_deg":162.1977,"arg_perigee_deg":266.5262,"mean_anomaly_deg":93.501,"bstar":0.00010065,"rev_number":1113,"period_min":96.47387756417,"perigee_km":583.95953397086,"apogee_km":595.50529358949,"semimajor_km":6967.8694137802,"source":"CELESTRAK","updated_at":"2026-09-20T09:00:25.208567Z"}}